Time,TemperatureF,DewpointF,PressureIn,WindDirection,WindDirectionDegrees,WindSpeedMPH,WindSpeedGustMPH,Humidity,HourlyPrecipIn,Conditions,Clouds,dailyrainin,SoftwareType,DateUTC
2013-08-29 00:04:00,68.9,59.9,29.56,North,0,0.0,0.0,73,0.00,,---,0.00,VWS V13.01,2013-08-29 04:04:00,
2013-08-29 00:09:00,68.9,60.3,29.56,North,0,0.0,0.0,74,0.00,,---,0.00,VWS V13.01,2013-08-29 04:09:00,
2013-08-29 00:14:00,68.9,60.3,29.56,North,0,0.0,0.0,74,0.00,,---,0.00,VWS V13.01,2013-08-29 04:14:00,
2013-08-29 00:19:00,69.1,60.1,29.56,North,0,0.0,0.0,73,0.00,,---,0.00,VWS V13.01,2013-08-29 04:19:00,
2013-08-29 00:24:00,69.1,59.7,29.56,North,0,0.0,0.0,72,0.00,,---,0.00,VWS V13.01,2013-08-29 04:24:00,
2013-08-29 00:29:00,69.1,59.7,29.56,North,0,0.0,0.0,72,0.00,,---,0.00,VWS V13.01,2013-08-29 04:29:00,
2013-08-29 00:34:00,69.1,60.5,29.56,North,0,0.0,0.0,74,0.00,,---,0.00,VWS V13.01,2013-08-29 04:34:00,
2013-08-29 00:39:00,69.1,61.2,29.56,North,0,0.0,0.0,76,0.00,,---,0.00,VWS V13.01,2013-08-29 04:39:00,
2013-08-29 00:44:00,69.3,61.8,29.56,North,0,0.0,0.0,77,0.00,,---,0.00,VWS V13.01,2013-08-29 04:44:00,
2013-08-29 00:49:00,69.3,62.1,29.56,North,0,0.0,0.0,78,0.00,,---,0.00,VWS V13.01,2013-08-29 04:49:00,
2013-08-29 00:54:00,69.1,62.7,29.56,North,0,0.0,0.0,80,0.00,,---,0.00,VWS V13.01,2013-08-29 04:54:00,
2013-08-29 00:59:00,69.1,63.0,29.56,North,0,0.0,0.0,81,0.00,,---,0.00,VWS V13.01,2013-08-29 04:59:00,
2013-08-29 01:04:00,69.1,63.4,29.56,North,0,0.0,0.0,82,0.00,,---,0.00,VWS V13.01,2013-08-29 05:04:00,
2013-08-29 01:09:00,69.1,63.4,29.56,North,0,0.0,0.0,82,0.00,,---,0.00,VWS V13.01,2013-08-29 05:09:00,
2013-08-29 01:19:00,69.3,63.5,29.56,North,0,0.0,0.0,82,0.00,,---,0.00,VWS V13.01,2013-08-29 05:19:00,
2013-08-29 01:24:00,69.3,63.5,29.56,North,0,0.0,0.0,82,0.00,,---,0.00,VWS V13.01,2013-08-29 05:24:00,
2013-08-29 01:29:00,69.3,63.5,29.56,North,0,0.0,0.0,82,0.00,,---,0.00,VWS V13.01,2013-08-29 05:29:00,
2013-08-29 01:34:00,69.3,63.5,29.56,North,0,0.0,0.0,82,0.00,,---,0.00,VWS V13.01,2013-08-29 05:34:00,
2013-08-29 01:39:00,69.3,63.9,29.56,North,0,0.0,0.0,83,0.00,,---,0.00,VWS V13.01,2013-08-29 05:39:00,
2013-08-29 01:44:00,69.4,64.4,29.56,North,0,0.0,0.0,84,0.00,,---,0.00,VWS V13.01,2013-08-29 05:44:00,
2013-08-29 01:49:00,69.6,64.6,29.56,North,0,0.0,0.0,84,0.00,,---,0.00,VWS V13.01,2013-08-29 05:49:00,
2013-08-29 01:54:00,69.8,64.4,29.56,North,0,0.0,0.0,83,0.00,,---,0.00,VWS V13.01,2013-08-29 05:54:00,
2013-08-29 01:59:00,70.0,64.6,29.56,North,0,0.0,0.0,83,0.00,,---,0.00,VWS V13.01,2013-08-29 05:59:00,
2013-08-29 02:04:00,70.0,64.6,29.56,North,0,0.0,0.0,83,0.00,,---,0.00,VWS V13.01,2013-08-29 06:04:00,
2013-08-29 02:09:00,70.2,65.1,29.56,North,0,0.0,0.0,84,0.00,,---,0.00,VWS V13.01,2013-08-29 06:09:00,
2013-08-29 02:14:00,70.2,65.4,29.56,North,0,0.0,0.0,85,0.00,,---,0.00,VWS V13.01,2013-08-29 06:14:00,
2013-08-29 02:24:00,70.3,66.0,29.56,North,0,0.0,0.0,86,0.00,,---,0.00,VWS V13.01,2013-08-29 06:24:00,
2013-08-29 02:29:00,70.3,66.0,29.56,North,0,0.0,0.0,86,0.00,,---,0.00,VWS V13.01,2013-08-29 06:29:00,
2013-08-29 02:34:00,70.5,65.8,29.56,North,0,0.0,0.0,85,0.00,,---,0.00,VWS V13.01,2013-08-29 06:34:00,
2013-08-29 02:39:00,70.5,65.8,29.56,North,0,0.0,0.0,85,0.00,,---,0.00,VWS V13.01,2013-08-29 06:39:00,
2013-08-29 02:44:00,70.5,65.8,29.56,North,0,0.0,0.0,85,0.00,,---,0.00,VWS V13.01,2013-08-29 06:44:00,
2013-08-29 02:49:00,70.3,65.3,29.56,North,0,0.0,0.0,84,0.00,,---,0.00,VWS V13.01,2013-08-29 06:49:00,
2013-08-29 02:54:00,70.2,64.8,29.56,North,0,0.0,0.0,83,0.00,,---,0.00,VWS V13.01,2013-08-29 06:54:00,
2013-08-29 02:59:00,70.2,64.4,29.56,North,0,0.0,0.0,82,0.00,,---,0.00,VWS V13.01,2013-08-29 06:59:00,
2013-08-29 03:04:00,70.0,64.2,29.56,North,0,0.0,0.0,82,0.00,,---,0.00,VWS V13.01,2013-08-29 07:04:00,
2013-08-29 03:09:00,69.8,64.1,29.56,North,0,0.0,0.0,82,0.00,,---,0.00,VWS V13.01,2013-08-29 07:09:00,
2013-08-29 03:14:00,69.6,63.9,29.59,North,0,0.0,0.0,82,0.00,,---,0.00,VWS V13.01,2013-08-29 07:14:00,
2013-08-29 03:19:00,69.6,63.9,29.59,North,0,0.0,0.0,82,0.00,,---,0.00,VWS V13.01,2013-08-29 07:19:00,
2013-08-29 03:24:00,69.4,63.4,29.59,North,0,0.0,0.0,81,0.00,,---,0.00,VWS V13.01,2013-08-29 07:24:00,
2013-08-29 03:29:00,69.4,63.7,29.59,North,0,0.0,0.0,82,0.00,,---,0.00,VWS V13.01,2013-08-29 07:29:00,
2013-08-29 03:34:00,69.4,63.7,29.59,North,0,0.0,0.0,82,0.00,,---,0.00,VWS V13.01,2013-08-29 07:34:00,
2013-08-29 03:39:00,69.4,63.7,29.59,North,0,0.0,0.0,82,0.00,,---,0.00,VWS V13.01,2013-08-29 07:39:00,
2013-08-29 03:44:00,69.3,63.9,29.56,North,0,0.0,0.0,83,0.00,,---,0.00,VWS V13.01,2013-08-29 07:44:00,
2013-08-29 03:49:00,69.3,63.9,29.56,North,0,0.0,0.0,83,0.00,,---,0.00,VWS V13.01,2013-08-29 07:49:00,
2013-08-29 03:54:00,69.3,63.9,29.56,North,0,0.0,0.0,83,0.00,,---,0.00,VWS V13.01,2013-08-29 07:54:00,
2013-08-29 03:59:00,69.4,64.4,29.59,North,0,0.0,0.0,84,0.00,,---,0.00,VWS V13.01,2013-08-29 07:59:00,
2013-08-29 04:04:00,69.6,64.9,29.59,North,0,0.0,0.0,85,0.00,,---,0.00,VWS V13.01,2013-08-29 08:04:00,
2013-08-29 04:09:00,69.6,64.9,29.59,North,0,0.0,0.0,85,0.00,,---,0.00,VWS V13.01,2013-08-29 08:09:00,
2013-08-29 04:14:00,69.8,65.4,29.59,North,0,0.0,0.0,86,0.00,,---,0.00,VWS V13.01,2013-08-29 08:14:00,
2013-08-29 04:19:00,70.0,65.9,29.59,North,0,0.0,0.0,87,0.00,,---,0.00,VWS V13.01,2013-08-29 08:19:00,
2013-08-29 04:24:00,70.0,66.3,29.59,North,0,0.0,0.0,88,0.00,,---,0.00,VWS V13.01,2013-08-29 08:24:00,
2013-08-29 04:29:00,70.0,66.3,29.59,North,0,0.0,0.0,88,0.00,,---,0.00,VWS V13.01,2013-08-29 08:29:00,
2013-08-29 04:34:00,70.0,66.3,29.59,North,0,0.0,0.0,88,0.00,,---,0.00,VWS V13.01,2013-08-29 08:34:00,
2013-08-29 04:39:00,70.0,65.9,29.59,North,0,0.0,0.0,87,0.00,,---,0.00,VWS V13.01,2013-08-29 08:39:00,
2013-08-29 04:44:00,70.2,66.1,29.59,North,0,0.0,0.0,87,0.00,,---,0.00,VWS V13.01,2013-08-29 08:44:00,
2013-08-29 04:49:00,70.2,65.8,29.59,North,0,0.0,0.0,86,0.00,,---,0.00,VWS V13.01,2013-08-29 08:49:00,
2013-08-29 04:54:00,70.3,66.0,29.59,North,0,0.0,0.0,86,0.00,,---,0.00,VWS V13.01,2013-08-29 08:54:00,
2013-08-29 04:59:00,70.3,65.6,29.59,North,0,0.0,0.0,85,0.00,,---,0.00,VWS V13.01,2013-08-29 08:59:00,
2013-08-29 05:04:00,70.5,65.5,29.59,North,0,0.0,0.0,84,0.00,,---,0.00,VWS V13.01,2013-08-29 09:04:00,
2013-08-29 05:09:00,70.5,65.5,29.59,North,0,0.0,0.0,84,0.00,,---,0.00,VWS V13.01,2013-08-29 09:09:00,
2013-08-29 05:14:00,70.3,64.6,29.59,North,0,0.0,0.0,82,0.00,,---,0.00,VWS V13.01,2013-08-29 09:14:00,
2013-08-29 05:19:00,70.3,64.2,29.59,North,0,0.0,0.0,81,0.00,,---,0.00,VWS V13.01,2013-08-29 09:19:00,
2013-08-29 05:24:00,70.5,64.4,29.59,North,0,0.0,0.0,81,0.00,,---,0.00,VWS V13.01,2013-08-29 09:24:00,
2013-08-29 05:29:00,70.5,64.4,29.59,North,0,0.0,0.0,81,0.00,,---,0.00,VWS V13.01,2013-08-29 09:29:00,
2013-08-29 05:34:00,70.5,64.4,29.59,North,0,0.0,0.0,81,0.00,,---,0.00,VWS V13.01,2013-08-29 09:34:00,
2013-08-29 05:39:00,70.5,64.4,29.59,North,0,0.0,0.0,81,0.00,,---,0.00,VWS V13.01,2013-08-29 09:39:00,
2013-08-29 05:44:00,70.3,63.9,29.59,North,0,0.0,0.0,80,0.00,,---,0.00,VWS V13.01,2013-08-29 09:44:00,
2013-08-29 05:49:00,70.3,63.9,29.59,North,0,0.0,0.0,80,0.00,,---,0.00,VWS V13.01,2013-08-29 09:49:00,
2013-08-29 05:54:00,70.3,63.9,29.59,North,0,0.0,0.0,80,0.00,,---,0.00,VWS V13.01,2013-08-29 09:54:00,
2013-08-29 05:59:00,70.5,64.1,29.59,North,0,0.0,0.0,80,0.00,,---,0.00,VWS V13.01,2013-08-29 09:59:00,
2013-08-29 06:04:00,70.5,64.1,29.59,North,0,0.0,0.0,80,0.00,,---,0.00,VWS V13.01,2013-08-29 10:04:00,
2013-08-29 06:09:00,70.3,63.5,29.59,North,0,0.0,0.0,79,0.00,,---,0.00,VWS V13.01,2013-08-29 10:09:00,
2013-08-29 06:14:00,70.2,63.0,29.59,North,0,0.0,0.0,78,0.00,,---,0.00,VWS V13.01,2013-08-29 10:14:00,
2013-08-29 06:19:00,70.2,63.0,29.59,North,0,0.0,0.0,78,0.00,,---,0.00,VWS V13.01,2013-08-29 10:19:00,
2013-08-29 06:24:00,70.2,63.0,29.59,North,0,0.0,0.0,78,0.00,,---,0.00,VWS V13.01,2013-08-29 10:24:00,
2013-08-29 06:34:00,70.2,63.0,29.62,North,0,0.0,0.0,78,0.00,,---,0.00,VWS V13.01,2013-08-29 10:34:00,
2013-08-29 06:39:00,70.2,62.6,29.62,North,0,0.0,0.0,77,0.00,,---,0.00,VWS V13.01,2013-08-29 10:39:00,
2013-08-29 06:44:00,70.3,62.8,29.62,North,0,0.0,0.0,77,0.00,,---,0.00,VWS V13.01,2013-08-29 10:44:00,
2013-08-29 06:49:00,70.3,62.4,29.62,North,0,0.0,0.0,76,0.00,,---,0.00,VWS V13.01,2013-08-29 10:49:00,
2013-08-29 06:54:00,70.2,62.2,29.62,North,0,0.0,0.0,76,0.00,,---,0.00,VWS V13.01,2013-08-29 10:54:00,
2013-08-29 06:59:00,70.0,61.3,29.62,North,0,0.0,0.0,74,0.00,,---,0.00,VWS V13.01,2013-08-29 10:59:00,
2013-08-29 07:04:00,70.0,60.5,29.62,North,0,0.0,0.0,72,0.00,,---,0.00,VWS V13.01,2013-08-29 11:04:00,
2013-08-29 07:09:00,70.0,60.5,29.62,North,0,0.0,0.0,72,0.00,,---,0.00,VWS V13.01,2013-08-29 11:09:00,
2013-08-29 07:14:00,70.2,60.7,29.62,North,0,0.0,0.0,72,0.00,,---,0.00,VWS V13.01,2013-08-29 11:14:00,
2013-08-29 07:19:00,70.2,60.7,29.62,North,0,0.0,0.0,72,0.00,,---,0.00,VWS V13.01,2013-08-29 11:19:00,
2013-08-29 07:24:00,70.2,60.7,29.62,North,0,0.0,0.0,72,0.00,,---,0.00,VWS V13.01,2013-08-29 11:24:00,
2013-08-29 07:29:00,70.2,60.7,29.62,North,0,0.0,0.0,72,0.00,,---,0.00,VWS V13.01,2013-08-29 11:29:00,
2013-08-29 07:34:00,70.2,61.1,29.62,North,0,0.0,0.0,73,0.00,,---,0.00,VWS V13.01,2013-08-29 11:34:00,
2013-08-29 07:39:00,70.0,61.7,29.62,North,0,0.0,0.0,75,0.00,,---,0.00,VWS V13.01,2013-08-29 11:39:00,
2013-08-29 07:44:00,69.8,62.6,29.62,North,0,0.0,0.0,78,0.00,,---,0.00,VWS V13.01,2013-08-29 11:44:00,
2013-08-29 07:49:00,69.6,63.2,29.62,North,0,0.0,0.0,80,0.00,,---,0.00,VWS V13.01,2013-08-29 11:49:00,
2013-08-29 07:54:00,69.6,63.9,29.62,North,0,0.0,0.0,82,0.00,,---,0.00,VWS V13.01,2013-08-29 11:54:00,
2013-08-29 07:59:00,69.4,63.7,29.65,North,0,0.0,0.0,82,0.00,,---,0.00,VWS V13.01,2013-08-29 11:59:00,
2013-08-29 08:04:00,69.4,63.7,29.65,North,0,0.0,0.0,82,0.00,,---,0.00,VWS V13.01,2013-08-29 12:04:00,
2013-08-29 08:09:00,69.4,64.1,29.65,North,0,0.0,0.0,83,0.00,,---,0.00,VWS V13.01,2013-08-29 12:09:00,
2013-08-29 08:19:00,69.1,62.7,29.65,North,0,0.0,0.0,80,0.00,,---,0.00,VWS V13.01,2013-08-29 12:19:00,
2013-08-29 08:24:00,68.9,61.0,29.65,North,0,0.0,0.0,76,0.00,,---,0.00,VWS V13.01,2013-08-29 12:24:00,
2013-08-29 08:29:00,68.7,60.1,29.65,North,0,0.0,0.0,74,0.00,,---,0.00,VWS V13.01,2013-08-29 12:29:00,
2013-08-29 08:34:00,68.7,59.7,29.65,North,0,0.0,0.0,73,0.00,,---,0.00,VWS V13.01,2013-08-29 12:34:00,
2013-08-29 08:44:00,69.1,58.9,29.65,North,0,0.0,0.0,70,0.00,,---,0.00,VWS V13.01,2013-08-29 12:44:00,
2013-08-29 08:49:00,69.1,57.7,29.65,North,0,0.0,0.0,67,0.00,,---,0.00,VWS V13.01,2013-08-29 12:49:00,
2013-08-29 08:54:00,69.1,58.1,29.65,North,0,0.0,0.0,68,0.00,,---,0.00,VWS V13.01,2013-08-29 12:54:00,
2013-08-29 08:59:00,69.1,57.7,29.65,North,0,0.0,0.0,67,0.00,,---,0.00,VWS V13.01,2013-08-29 12:59:00,
2013-08-29 09:04:00,69.3,56.6,29.65,North,0,0.0,0.0,64,0.00,,---,0.00,VWS V13.01,2013-08-29 13:04:00,
2013-08-29 09:09:00,69.4,57.2,29.65,North,0,0.0,0.0,65,0.00,,---,0.00,VWS V13.01,2013-08-29 13:09:00,
2013-08-29 09:14:00,70.0,55.9,29.65,North,0,0.0,0.0,61,0.00,,---,0.00,VWS V13.01,2013-08-29 13:14:00,
2013-08-29 09:24:00,70.3,53.4,29.65,North,0,0.0,0.0,55,0.00,,---,0.00,VWS V13.01,2013-08-29 13:24:00,
2013-08-29 09:29:00,70.2,52.2,29.65,North,0,0.0,0.0,53,0.00,,---,0.00,VWS V13.01,2013-08-29 13:29:00,
2013-08-29 09:34:00,70.2,50.7,29.65,North,0,0.0,0.0,50,0.00,,---,0.00,VWS V13.01,2013-08-29 13:34:00,
2013-08-29 09:39:00,70.5,49.3,29.65,North,0,0.0,0.0,47,0.00,,---,0.00,VWS V13.01,2013-08-29 13:39:00,
2013-08-29 09:44:00,71.1,49.8,29.65,North,0,0.0,0.0,47,0.00,,---,0.00,VWS V13.01,2013-08-29 13:44:00,
2013-08-29 09:49:00,72.0,52.3,29.65,North,0,0.0,0.0,50,0.00,,---,0.00,VWS V13.01,2013-08-29 13:49:00,
2013-08-29 09:54:00,72.1,49.0,29.65,North,0,0.0,0.0,44,0.00,,---,0.00,VWS V13.01,2013-08-29 13:54:00,
2013-08-29 09:59:00,72.5,48.1,29.65,North,0,0.0,0.0,42,0.00,,---,0.00,VWS V13.01,2013-08-29 13:59:00,
2013-08-29 10:04:00,72.1,47.8,29.65,North,0,0.0,0.0,42,0.00,,---,0.00,VWS V13.01,2013-08-29 14:04:00,
2013-08-29 10:14:00,72.1,47.2,29.65,North,0,0.0,0.0,41,0.00,,---,0.00,VWS V13.01,2013-08-29 14:14:00,
2013-08-29 10:19:00,72.5,47.5,29.65,North,0,0.0,0.0,41,0.00,,---,0.00,VWS V13.01,2013-08-29 14:19:00,
2013-08-29 10:24:00,72.5,48.1,29.65,North,0,0.0,0.0,42,0.00,,---,0.00,VWS V13.01,2013-08-29 14:24:00,
2013-08-29 10:29:00,72.5,46.2,29.65,North,0,0.0,0.0,39,0.00,,---,0.00,VWS V13.01,2013-08-29 14:29:00,
2013-08-29 10:34:00,72.5,46.2,29.65,North,0,0.0,0.0,39,0.00,,---,0.00,VWS V13.01,2013-08-29 14:34:00,
2013-08-29 10:44:00,72.7,47.7,29.68,North,0,0.0,0.0,41,0.00,,---,0.00,VWS V13.01,2013-08-29 14:44:00,
2013-08-29 10:49:00,72.3,46.7,29.68,North,0,0.0,0.0,40,0.00,,---,0.00,VWS V13.01,2013-08-29 14:49:00,
2013-08-29 10:54:00,72.1,46.5,29.68,North,0,0.0,0.0,40,0.00,,---,0.00,VWS V13.01,2013-08-29 14:54:00,
2013-08-29 10:59:00,72.3,46.7,29.68,North,0,0.0,0.0,40,0.00,,---,0.00,VWS V13.01,2013-08-29 14:59:00,
2013-08-29 11:04:00,72.5,48.1,29.68,North,0,0.0,0.0,42,0.00,,---,0.00,VWS V13.01,2013-08-29 15:04:00,
2013-08-29 11:09:00,72.1,47.8,29.68,North,0,0.0,0.0,42,0.00,,---,0.00,VWS V13.01,2013-08-29 15:09:00,
2013-08-29 11:14:00,72.0,47.6,29.68,North,0,0.0,0.0,42,0.00,,---,0.00,VWS V13.01,2013-08-29 15:14:00,
2013-08-29 11:19:00,71.8,48.1,29.68,North,0,0.0,0.0,43,0.00,,---,0.00,VWS V13.01,2013-08-29 15:19:00,
2013-08-29 11:24:00,71.6,47.9,29.68,North,0,0.0,0.0,43,0.00,,---,0.00,VWS V13.01,2013-08-29 15:24:00,
2013-08-29 11:29:00,71.6,49.2,29.68,North,0,0.0,0.0,45,0.00,,---,0.00,VWS V13.01,2013-08-29 15:29:00,
2013-08-29 11:34:00,71.6,48.6,29.68,North,0,0.0,0.0,44,0.00,,---,0.00,VWS V13.01,2013-08-29 15:34:00,
2013-08-29 11:39:00,71.6,48.6,29.68,North,0,0.0,0.0,44,0.00,,---,0.00,VWS V13.01,2013-08-29 15:39:00,
2013-08-29 11:44:00,71.8,48.7,29.68,North,0,0.0,0.0,44,0.00,,---,0.00,VWS V13.01,2013-08-29 15:44:00,
2013-08-29 11:49:00,72.1,49.0,29.68,North,0,0.0,0.0,44,0.00,,---,0.00,VWS V13.01,2013-08-29 15:49:00,
2013-08-29 11:59:00,73.0,48.0,29.68,North,0,0.0,0.0,41,0.00,,---,0.00,VWS V13.01,2013-08-29 15:59:00,
2013-08-29 12:04:00,73.0,46.6,29.68,North,0,0.0,0.0,39,0.00,,---,0.00,VWS V13.01,2013-08-29 16:04:00,
2013-08-29 12:09:00,73.2,48.1,29.68,North,0,0.0,0.0,41,0.00,,---,0.00,VWS V13.01,2013-08-29 16:09:00,
2013-08-29 12:14:00,73.2,46.8,29.68,North,0,0.0,0.0,39,0.00,,---,0.00,VWS V13.01,2013-08-29 16:14:00,
2013-08-29 12:19:00,72.9,45.8,29.68,North,0,0.0,0.0,38,0.00,,---,0.00,VWS V13.01,2013-08-29 16:19:00,
2013-08-29 12:24:00,73.2,46.1,29.68,North,0,0.0,0.0,38,0.00,,---,0.00,VWS V13.01,2013-08-29 16:24:00,
2013-08-29 12:34:00,73.6,44.3,29.65,North,0,0.0,0.0,35,0.00,,---,0.00,VWS V13.01,2013-08-29 16:34:00,
2013-08-29 12:39:00,73.6,45.0,29.65,North,0,0.0,0.0,36,0.00,,---,0.00,VWS V13.01,2013-08-29 16:39:00,
2013-08-29 12:44:00,73.4,45.6,29.65,North,0,0.0,0.0,37,0.00,,---,0.00,VWS V13.01,2013-08-29 16:44:00,
2013-08-29 12:49:00,73.6,45.0,29.65,North,0,0.0,0.0,36,0.00,,---,0.00,VWS V13.01,2013-08-29 16:49:00,
2013-08-29 12:54:00,73.6,46.4,29.65,North,0,0.0,0.0,38,0.00,,---,0.00,VWS V13.01,2013-08-29 16:54:00,
2013-08-29 12:59:00,73.6,45.7,29.65,North,0,0.0,0.0,37,0.00,,---,0.00,VWS V13.01,2013-08-29 16:59:00,
2013-08-29 13:04:00,73.8,44.4,29.65,North,0,0.0,0.0,35,0.00,,---,0.00,VWS V13.01,2013-08-29 17:04:00,
2013-08-29 13:09:00,73.6,43.5,29.65,North,0,0.0,0.0,34,0.00,,---,0.00,VWS V13.01,2013-08-29 17:09:00,
2013-08-29 13:14:00,73.8,43.7,29.65,North,0,0.0,0.0,34,0.00,,---,0.00,VWS V13.01,2013-08-29 17:14:00,
2013-08-29 13:19:00,73.6,43.5,29.65,North,0,0.0,0.0,34,0.00,,---,0.00,VWS V13.01,2013-08-29 17:19:00,
2013-08-29 13:24:00,73.9,44.6,29.65,North,0,0.0,0.0,35,0.00,,---,0.00,VWS V13.01,2013-08-29 17:24:00,
2013-08-29 13:29:00,74.3,44.1,29.65,North,0,0.0,0.0,34,0.00,,---,0.00,VWS V13.01,2013-08-29 17:29:00,
2013-08-29 13:34:00,74.8,44.6,29.65,North,0,0.0,0.0,34,0.00,,---,0.00,VWS V13.01,2013-08-29 17:34:00,
2013-08-29 13:39:00,75.2,45.7,29.65,North,0,0.0,0.0,35,0.00,,---,0.00,VWS V13.01,2013-08-29 17:39:00,
2013-08-29 13:44:00,74.5,44.3,29.65,North,0,0.0,0.0,34,0.00,,---,0.00,VWS V13.01,2013-08-29 17:44:00,
2013-08-29 13:49:00,75.6,42.8,29.65,North,0,0.0,0.0,31,0.00,,---,0.00,VWS V13.01,2013-08-29 17:49:00,
2013-08-29 13:54:00,77.2,43.4,29.65,North,0,0.0,0.0,30,0.00,,---,0.00,VWS V13.01,2013-08-29 17:54:00,
2013-08-29 13:59:00,75.7,43.0,29.65,North,0,0.0,0.0,31,0.00,,---,0.00,VWS V13.01,2013-08-29 17:59:00,
2013-08-29 14:04:00,75.9,43.1,29.65,North,0,0.0,0.0,31,0.00,,---,0.00,VWS V13.01,2013-08-29 18:04:00,
2013-08-29 14:09:00,75.4,42.7,29.65,North,0,0.0,0.0,31,0.00,,---,0.00,VWS V13.01,2013-08-29 18:09:00,
2013-08-29 14:14:00,76.6,42.9,29.65,North,0,0.0,0.0,30,0.00,,---,0.00,VWS V13.01,2013-08-29 18:14:00,
2013-08-29 14:19:00,77.2,41.6,29.65,North,0,0.0,0.0,28,0.00,,---,0.00,VWS V13.01,2013-08-29 18:19:00,
2013-08-29 14:24:00,77.7,41.1,29.65,North,0,0.0,0.0,27,0.00,,---,0.00,VWS V13.01,2013-08-29 18:24:00,
2013-08-29 14:29:00,76.8,40.3,29.65,North,0,0.0,0.0,27,0.00,,---,0.00,VWS V13.01,2013-08-29 18:29:00,
2013-08-29 14:34:00,76.6,42.0,29.65,North,0,0.0,0.0,29,0.00,,---,0.00,VWS V13.01,2013-08-29 18:34:00,
2013-08-29 14:39:00,75.7,42.1,29.65,North,0,0.0,0.0,30,0.00,,---,0.00,VWS V13.01,2013-08-29 18:39:00,
2013-08-29 14:44:00,75.7,43.0,29.65,North,0,0.0,0.0,31,0.00,,---,0.00,VWS V13.01,2013-08-29 18:44:00,
2013-08-29 14:49:00,75.9,43.1,29.65,North,0,0.0,0.0,31,0.00,,---,0.00,VWS V13.01,2013-08-29 18:49:00,
2013-08-29 14:54:00,75.9,42.3,29.65,North,0,0.0,0.0,30,0.00,,---,0.00,VWS V13.01,2013-08-29 18:54:00,
2013-08-29 14:59:00,76.1,43.3,29.65,North,0,0.0,0.0,31,0.00,,---,0.00,VWS V13.01,2013-08-29 18:59:00,
2013-08-29 15:04:00,76.3,43.5,29.65,North,0,0.0,0.0,31,0.00,,---,0.00,VWS V13.01,2013-08-29 19:04:00,
2013-08-29 15:14:00,76.1,43.3,29.65,North,0,0.0,0.0,31,0.00,,---,0.00,VWS V13.01,2013-08-29 19:14:00,
2013-08-29 15:19:00,76.3,43.5,29.65,North,0,0.0,0.0,31,0.00,,---,0.00,VWS V13.01,2013-08-29 19:19:00,
2013-08-29 15:24:00,76.8,43.9,29.65,North,0,0.0,0.0,31,0.00,,---,0.00,VWS V13.01,2013-08-29 19:24:00,
2013-08-29 15:29:00,76.8,43.1,29.65,North,0,0.0,0.0,30,0.00,,---,0.00,VWS V13.01,2013-08-29 19:29:00,
2013-08-29 15:34:00,77.0,43.2,29.65,North,0,0.0,0.0,30,0.00,,---,0.00,VWS V13.01,2013-08-29 19:34:00,
2013-08-29 15:39:00,75.6,42.8,29.65,North,0,0.0,0.0,31,0.00,,---,0.00,VWS V13.01,2013-08-29 19:39:00,
2013-08-29 15:44:00,75.9,43.1,29.65,North,0,0.0,0.0,31,0.00,,---,0.00,VWS V13.01,2013-08-29 19:44:00,
2013-08-29 15:54:00,76.1,43.3,29.65,North,0,0.0,0.0,31,0.00,,---,0.00,VWS V13.01,2013-08-29 19:54:00,
2013-08-29 15:59:00,76.3,44.3,29.65,North,0,0.0,0.0,32,0.00,,---,0.00,VWS V13.01,2013-08-29 19:59:00,
2013-08-29 16:04:00,76.1,42.5,29.65,North,0,0.0,0.0,30,0.00,,---,0.00,VWS V13.01,2013-08-29 20:04:00,
2013-08-29 16:09:00,76.3,42.6,29.65,North,0,0.0,0.0,30,0.00,,---,0.00,VWS V13.01,2013-08-29 20:09:00,
2013-08-29 16:14:00,76.5,42.8,29.65,North,0,0.0,0.0,30,0.00,,---,0.00,VWS V13.01,2013-08-29 20:14:00,
2013-08-29 16:19:00,76.6,42.9,29.65,North,0,0.0,0.0,30,0.00,,---,0.00,VWS V13.01,2013-08-29 20:19:00,
2013-08-29 16:24:00,77.4,41.7,29.65,North,0,0.0,0.0,28,0.00,,---,0.00,VWS V13.01,2013-08-29 20:24:00,
2013-08-29 16:29:00,77.5,40.0,29.65,North,0,0.0,0.0,26,0.00,,---,0.00,VWS V13.01,2013-08-29 20:29:00,
2013-08-29 16:34:00,78.3,40.6,29.65,North,0,0.0,0.0,26,0.00,,---,0.00,VWS V13.01,2013-08-29 20:34:00,
2013-08-29 16:39:00,76.5,43.6,29.65,North,0,0.0,0.0,31,0.00,,---,0.00,VWS V13.01,2013-08-29 20:39:00,
2013-08-29 16:44:00,75.9,43.1,29.65,North,0,0.0,0.0,31,0.00,,---,0.00,VWS V13.01,2013-08-29 20:44:00,
2013-08-29 16:49:00,75.9,44.0,29.65,North,0,0.0,0.0,32,0.00,,---,0.00,VWS V13.01,2013-08-29 20:49:00,
2013-08-29 16:54:00,75.6,44.5,29.65,North,0,0.0,0.0,33,0.00,,---,0.00,VWS V13.01,2013-08-29 20:54:00,
2013-08-29 16:59:00,77.0,44.1,29.65,North,0,0.0,0.0,31,0.00,,---,0.00,VWS V13.01,2013-08-29 20:59:00,
2013-08-29 17:04:00,78.6,41.9,29.65,North,0,0.0,0.0,27,0.00,,---,0.00,VWS V13.01,2013-08-29 21:04:00,
2013-08-29 17:09:00,79.0,39.2,29.65,North,0,0.0,0.0,24,0.00,,---,0.00,VWS V13.01,2013-08-29 21:09:00,
2013-08-29 17:14:00,76.6,44.6,29.65,North,0,0.0,0.0,32,0.00,,---,0.00,VWS V13.01,2013-08-29 21:14:00,
2013-08-29 17:19:00,76.5,44.4,29.65,North,0,0.0,0.0,32,0.00,,---,0.00,VWS V13.01,2013-08-29 21:19:00,
2013-08-29 17:24:00,77.4,43.5,29.65,North,0,0.0,0.0,30,0.00,,---,0.00,VWS V13.01,2013-08-29 21:24:00,
2013-08-29 17:29:00,80.4,39.3,29.65,North,0,0.0,0.0,23,0.00,,---,0.00,VWS V13.01,2013-08-29 21:29:00,
2013-08-29 17:34:00,78.4,39.7,29.65,North,0,0.0,0.0,25,0.00,,---,0.00,VWS V13.01,2013-08-29 21:34:00,
2013-08-29 17:39:00,77.4,41.7,29.65,North,0,0.0,0.0,28,0.00,,---,0.00,VWS V13.01,2013-08-29 21:39:00,
2013-08-29 17:49:00,77.2,42.5,29.65,North,0,0.0,0.0,29,0.00,,---,0.00,VWS V13.01,2013-08-29 21:49:00,
2013-08-29 17:54:00,76.6,44.6,29.65,North,0,0.0,0.0,32,0.00,,---,0.00,VWS V13.01,2013-08-29 21:54:00,
2013-08-29 17:59:00,75.9,44.0,29.65,North,0,0.0,0.0,32,0.00,,---,0.00,VWS V13.01,2013-08-29 21:59:00,
2013-08-29 18:04:00,75.2,43.3,29.65,North,0,0.0,0.0,32,0.00,,---,0.00,VWS V13.01,2013-08-29 22:04:00,
2013-08-29 18:09:00,74.7,45.2,29.65,North,0,0.0,0.0,35,0.00,,---,0.00,VWS V13.01,2013-08-29 22:09:00,
2013-08-29 18:14:00,74.3,44.1,29.65,North,0,0.0,0.0,34,0.00,,---,0.00,VWS V13.01,2013-08-29 22:14:00,
2013-08-29 18:19:00,74.3,44.1,29.65,North,0,0.0,0.0,34,0.00,,---,0.00,VWS V13.01,2013-08-29 22:19:00,
2013-08-29 18:24:00,74.3,44.9,29.65,North,0,0.0,0.0,35,0.00,,---,0.00,VWS V13.01,2013-08-29 22:24:00,
2013-08-29 18:34:00,74.1,44.8,29.65,North,0,0.0,0.0,35,0.00,,---,0.00,VWS V13.01,2013-08-29 22:34:00,
2013-08-29 18:39:00,74.3,44.9,29.65,North,0,0.0,0.0,35,0.00,,---,0.00,VWS V13.01,2013-08-29 22:39:00,
2013-08-29 18:44:00,74.3,44.9,29.65,North,0,0.0,0.0,35,0.00,,---,0.00,VWS V13.01,2013-08-29 22:44:00,
2013-08-29 18:49:00,74.3,44.9,29.65,North,0,0.0,0.0,35,0.00,,---,0.00,VWS V13.01,2013-08-29 22:49:00,
2013-08-29 18:54:00,74.3,44.1,29.65,North,0,0.0,0.0,34,0.00,,---,0.00,VWS V13.01,2013-08-29 22:54:00,
2013-08-29 18:59:00,74.5,45.1,29.65,North,0,0.0,0.0,35,0.00,,---,0.00,VWS V13.01,2013-08-29 22:59:00,
2013-08-29 19:04:00,74.5,45.8,29.65,North,0,0.0,0.0,36,0.00,,---,0.00,VWS V13.01,2013-08-29 23:04:00,
2013-08-29 19:09:00,74.5,45.8,29.65,North,0,0.0,0.0,36,0.00,,---,0.00,VWS V13.01,2013-08-29 23:09:00,
2013-08-29 19:14:00,74.5,45.8,29.65,North,0,0.0,0.0,36,0.00,,---,0.00,VWS V13.01,2013-08-29 23:14:00,
2013-08-29 19:19:00,74.3,46.4,29.65,North,0,0.0,0.0,37,0.00,,---,0.00,VWS V13.01,2013-08-29 23:19:00,
2013-08-29 19:24:00,73.9,46.8,29.65,North,0,0.0,0.0,38,0.00,,---,0.00,VWS V13.01,2013-08-29 23:24:00,
2013-08-29 19:29:00,73.8,47.3,29.68,North,0,0.0,0.0,39,0.00,,---,0.00,VWS V13.01,2013-08-29 23:29:00,
2013-08-29 19:34:00,73.6,49.1,29.68,North,0,0.0,0.0,42,0.00,,---,0.00,VWS V13.01,2013-08-29 23:34:00,
2013-08-29 19:39:00,73.2,49.4,29.68,North,0,0.0,0.0,43,0.00,,---,0.00,VWS V13.01,2013-08-29 23:39:00,
2013-08-29 19:44:00,73.0,49.2,29.65,North,0,0.0,0.0,43,0.00,,---,0.00,VWS V13.01,2013-08-29 23:44:00,
2013-08-29 19:49:00,72.9,49.1,29.65,North,0,0.0,0.0,43,0.00,,---,0.00,VWS V13.01,2013-08-29 23:49:00,
2013-08-29 19:54:00,72.7,49.5,29.65,North,0,0.0,0.0,44,0.00,,---,0.00,VWS V13.01,2013-08-29 23:54:00,
2013-08-29 20:04:00,72.1,49.7,29.68,North,0,0.0,0.0,45,0.00,,---,0.00,VWS V13.01,2013-08-30 00:04:00,
2013-08-29 20:09:00,72.0,49.5,29.68,North,0,0.0,0.0,45,0.00,,---,0.00,VWS V13.01,2013-08-30 00:09:00,
2013-08-29 20:14:00,71.8,51.1,29.68,North,0,0.0,0.0,48,0.00,,---,0.00,VWS V13.01,2013-08-30 00:14:00,
2013-08-29 20:19:00,71.8,51.6,29.68,North,0,0.0,0.0,49,0.00,,---,0.00,VWS V13.01,2013-08-30 00:19:00,
2013-08-29 20:24:00,71.6,52.0,29.68,North,0,0.0,0.0,50,0.00,,---,0.00,VWS V13.01,2013-08-30 00:24:00,
2013-08-29 20:29:00,71.6,51.5,29.68,North,0,0.0,0.0,49,0.00,,---,0.00,VWS V13.01,2013-08-30 00:29:00,
2013-08-29 20:34:00,71.4,50.7,29.68,North,0,0.0,0.0,48,0.00,,---,0.00,VWS V13.01,2013-08-30 00:34:00,
2013-08-29 20:39:00,71.2,50.6,29.68,North,0,0.0,0.0,48,0.00,,---,0.00,VWS V13.01,2013-08-30 00:39:00,
2013-08-29 20:44:00,71.1,51.0,29.68,North,0,0.0,0.0,49,0.00,,---,0.00,VWS V13.01,2013-08-30 00:44:00,
2013-08-29 20:49:00,70.9,50.8,29.68,North,0,0.0,0.0,49,0.00,,---,0.00,VWS V13.01,2013-08-30 00:49:00,
2013-08-29 20:59:00,70.9,50.2,29.68,North,0,0.0,0.0,48,0.00,,---,0.00,VWS V13.01,2013-08-30 00:59:00,
2013-08-29 21:04:00,70.7,48.9,29.68,North,0,0.0,0.0,46,0.00,,---,0.00,VWS V13.01,2013-08-30 01:04:00,
2013-08-29 21:09:00,70.3,49.2,29.68,North,0,0.0,0.0,47,0.00,,---,0.00,VWS V13.01,2013-08-30 01:09:00,
2013-08-29 21:14:00,70.2,49.0,29.68,North,0,0.0,0.0,47,0.00,,---,0.00,VWS V13.01,2013-08-30 01:14:00,
2013-08-29 21:19:00,70.2,49.0,29.68,North,0,0.0,0.0,47,0.00,,---,0.00,VWS V13.01,2013-08-30 01:19:00,
2013-08-29 21:24:00,70.0,48.3,29.68,North,0,0.0,0.0,46,0.00,,---,0.00,VWS V13.01,2013-08-30 01:24:00,
2013-08-29 21:29:00,70.0,48.8,29.68,North,0,0.0,0.0,47,0.00,,---,0.00,VWS V13.01,2013-08-30 01:29:00,
2013-08-29 21:34:00,69.8,48.7,29.68,North,0,0.0,0.0,47,0.00,,---,0.00,VWS V13.01,2013-08-30 01:34:00,
2013-08-29 21:44:00,69.4,49.5,29.68,North,0,0.0,0.0,49,0.00,,---,0.00,VWS V13.01,2013-08-30 01:44:00,
2013-08-29 21:49:00,69.3,49.8,29.68,North,0,0.0,0.0,50,0.00,,---,0.00,VWS V13.01,2013-08-30 01:49:00,
2013-08-29 21:54:00,69.1,49.7,29.68,North,0,0.0,0.0,50,0.00,,---,0.00,VWS V13.01,2013-08-30 01:54:00,
2013-08-29 21:59:00,69.1,49.7,29.68,North,0,0.0,0.0,50,0.00,,---,0.00,VWS V13.01,2013-08-30 01:59:00,
2013-08-29 22:04:00,69.1,50.2,29.68,North,0,0.0,0.0,51,0.00,,---,0.00,VWS V13.01,2013-08-30 02:04:00,
2013-08-29 22:09:00,68.7,48.8,29.68,North,0,0.0,0.0,49,0.00,,---,0.00,VWS V13.01,2013-08-30 02:09:00,
2013-08-29 22:14:00,68.7,49.3,29.68,North,0,0.0,0.0,50,0.00,,---,0.00,VWS V13.01,2013-08-30 02:14:00,
2013-08-29 22:19:00,68.9,49.5,29.68,North,0,0.0,0.0,50,0.00,,---,0.00,VWS V13.01,2013-08-30 02:19:00,
2013-08-29 22:24:00,68.4,50.1,29.68,North,0,0.0,0.0,52,0.00,,---,0.00,VWS V13.01,2013-08-30 02:24:00,
2013-08-29 22:29:00,68.2,49.4,29.68,North,0,0.0,0.0,51,0.00,,---,0.00,VWS V13.01,2013-08-30 02:29:00,
2013-08-29 22:34:00,68.0,49.2,29.68,North,0,0.0,0.0,51,0.00,,---,0.00,VWS V13.01,2013-08-30 02:34:00,
2013-08-29 22:39:00,68.0,49.2,29.68,North,0,0.0,0.0,51,0.00,,---,0.00,VWS V13.01,2013-08-30 02:39:00,
2013-08-29 22:44:00,68.0,49.2,29.68,North,0,0.0,0.0,51,0.00,,---,0.00,VWS V13.01,2013-08-30 02:44:00,
2013-08-29 22:49:00,67.8,49.6,29.68,North,0,0.0,0.0,52,0.00,,---,0.00,VWS V13.01,2013-08-30 02:49:00,
2013-08-29 22:54:00,67.6,49.4,29.68,North,0,0.0,0.0,52,0.00,,---,0.00,VWS V13.01,2013-08-30 02:54:00,
2013-08-29 22:59:00,67.8,49.6,29.68,North,0,0.0,0.0,52,0.00,,---,0.00,VWS V13.01,2013-08-30 02:59:00,
2013-08-29 23:04:00,67.8,49.6,29.68,North,0,0.0,0.0,52,0.00,,---,0.00,VWS V13.01,2013-08-30 03:04:00,
2013-08-29 23:09:00,67.6,49.4,29.68,North,0,0.0,0.0,52,0.00,,---,0.00,VWS V13.01,2013-08-30 03:09:00,
2013-08-29 23:19:00,67.6,49.9,29.68,North,0,0.0,0.0,53,0.00,,---,0.00,VWS V13.01,2013-08-30 03:19:00,
2013-08-29 23:24:00,67.6,49.4,29.68,North,0,0.0,0.0,52,0.00,,---,0.00,VWS V13.01,2013-08-30 03:24:00,
2013-08-29 23:29:00,67.5,48.7,29.68,North,0,0.0,0.0,51,0.00,,---,0.00,VWS V13.01,2013-08-30 03:29:00,
2013-08-29 23:34:00,67.5,49.2,29.68,North,0,0.0,0.0,52,0.00,,---,0.00,VWS V13.01,2013-08-30 03:34:00,
2013-08-29 23:39:00,67.5,49.2,29.68,North,0,0.0,0.0,52,0.00,,---,0.00,VWS V13.01,2013-08-30 03:39:00,
2013-08-29 23:44:00,67.5,49.8,29.68,North,0,0.0,0.0,53,0.00,,---,0.00,VWS V13.01,2013-08-30 03:44:00,
2013-08-29 23:49:00,67.5,49.8,29.68,North,0,0.0,0.0,53,0.00,,---,0.00,VWS V13.01,2013-08-30 03:49:00,
2013-08-29 23:54:00,67.3,49.1,29.68,North,0,0.0,0.0,52,0.00,,---,0.00,VWS V13.01,2013-08-30 03:54:00,
2013-08-29 23:59:00,67.3,49.6,29.68,North,0,0.0,0.0,53,0.00,,---,0.00,VWS V13.01,2013-08-30 03:59:00,